LiveATC.Net - Listen to live air traffic control over the Internet! Contact LiveATC.net for advertising information


ICAO: ENTC  IATA: TOS   Airport: Tromso Airport
City: Langnes
Country: Norway   Continent: Europe
ENTC METAR Weather: ENTC 131220Z 14003KT 110V170 9999 FEW005 M05/M06 Q1007 NOSIG RMK WIND 2600FT 12019KT
ENTC Flight Activity (FlightAware)
ENTC Tower/App
Feed Status: UP   Listeners: 1
Listen right in your browser - requires Flash (in browser, requires Flash)
Click here to listen with your own player (launches your MP3 player)
Click here to listen with Windows Media Player (Windows Media Player)
ENTC Tower/App Audio Archives
FacilityFrequency
Langnes Tower118.300
Langnes VDF (Approach)123.750


NOTICE

Unauthorized use prohibited. See LiveATC.net Terms of Service


Find LiveATC Audio Streams


Airport/ARTCC Code

Frequency
(e.g., 124.400, 128.75)
Site-wide search

Browse LiveATC Feeds
LiveATC Coverage Map
Top 50 LiveATC Feeds
Bad Weather Areas

LiveATC FAQ
Offer a LiveATC Feed
Contact LiveATC.net
Press Inquiries

LiveATC on iPhone
LiveATC on Android

Windows Phone
Windows 8/10

LiveATC Mobile
(Mobile browser)

ATC Audio Archives
Interesting Recordings

LiveATC Forums


Home Page
About LiveATC.net
Make a Donation
LiveATC Store

Terms of Use
Privacy Policy

Canadian Air Freqs

AIRMETs/SIGMETs

FAA Airport Status
Nat'l Airspace Status
Arrival Demand Charts


Server Software By:
Icecast.org
Liquidsoap

Please make a donation to help us keep growing!